Zurück zum Katalog

THORAD AGENA D DEB

AktivPO
NORAD 4856·DEBRIS·🇺🇸 United States

Gestartet Apr 8, 1970 von Vandenberg Space Force Base

Loading…

Nächste Überflüge

TLE

Source: Space-Track
1 04856U 70025EL  26223.31512921  .00000210  00000-0  13102-3 0  9999
2 04856  99.7436 351.9191 0152941 169.6147 190.8241 14.10574934878183

Verfolge THORAD AGENA D DEB in Echtzeit mit AllMySat

Download on the App Store